Lodz, Poland

12:07 PM CET on January 18, 2017 (GMT +0100)
Lublinek

Weather History for EPLL - February, 2013

Change the Weather History Date:

Saturday, February 2, 2013

  Actual Average Record
Temperature  
Mean Temperature 36 °F -  
Max Temperature 39 °F - - ()
Min Temperature 32 °F - - ()
Degree Days  
Heating Degree Days 30    
Moisture  
Dew Point 33 °F    
Average Humidity 93    
Maximum Humidity 100    
Minimum Humidity 81    
Precipitation  
Precipitation 0.00 in - - ()
Sea Level Pressure  
Sea Level Pressure 29.28 in    
Wind  
Wind Speed 7 mph ()    
Max Wind Speed 13 mph    
Max Gust Speed -    
Visibility 4.2 miles    
Events Rain , Snow    
T = Trace of Precipitation, MM = Missing Value Source: Averaged Metar Reports

Daily Weather History Graph

Daily Weather History Graph

Search for Another Location

Airport or City:

Trip Planner

Search our weather history database for the weather conditions in past years. The results will help you decide how hot, cold, wet, or windy it might be!

Date:

Astronomy

Feb. 02, 2013 Rise Set
Actual Time 7:19 AM CET 4:33 PM CET
Civil Twilight 6:43 AM CET 5:09 PM CET
Nautical Twilight 6:03 AM CET 5:49 PM CET
Astronomical Twilight 5:24 AM CET 6:29 PM CET
Moon No Moon Rise 9:25 AM CET (2/2)
Length of Visible Light 10h 25m
Length of Day
9h 13m
Waning Gibbous, 62% of the Moon is Illuminated
Feb 2
Waning Gibbous
Feb 3
Last Quarter
Feb 10
New
Feb 17
First Quarter
Feb 25
Full

Hourly Weather History & Observations

Time (CET) Temp. Windchill Dew Point Humidity Pressure Visibility Wind Dir Wind Speed Gust Speed Precip Events Conditions
12:00 AM 35.6 °F 31.7 °F 32.0 °F 87% 29.39 in - ESE 4.6 mph - N/A   Clear
12:30 AM 37.4 °F 33.8 °F 32.0 °F 81% 29.36 in 6.2 mi SE 4.6 mph - N/A   Scattered Clouds
1:00 AM 35.6 °F 32.8 °F 32.0 °F 87% 29.33 in 6.2 mi SE 3.5 mph - N/A   Scattered Clouds
1:30 AM 37.4 °F 33.8 °F 32.0 °F 81% 29.33 in 5.0 mi SE 4.6 mph - N/A   Mostly Cloudy
2:00 AM 37.4 °F 31.4 °F 32.0 °F 81% 29.30 in 5.6 mi SSE 8.1 mph - N/A Rain Light Rain
2:30 AM 35.6 °F 29.2 °F 33.8 °F 93% 29.30 in 5.6 mi South 8.1 mph - N/A Rain Light Rain
3:00 AM 35.6 °F 29.9 °F 33.8 °F 93% 29.30 in 5.6 mi SSE 6.9 mph - N/A Rain Light Rain
3:30 AM 35.6 °F 28.6 °F 33.8 °F 93% 29.27 in 5.0 mi SE 9.2 mph - N/A Rain Light Rain
4:00 AM 35.6 °F 28.0 °F 33.8 °F 93% 29.24 in 4.3 mi SE 10.4 mph - N/A Rain Light Rain
4:30 AM 35.6 °F 28.0 °F 33.8 °F 93% 29.24 in 4.3 mi SE 10.4 mph - N/A Rain Light Rain
5:00 AM 33.8 °F 26.4 °F 33.8 °F 100% 29.24 in 4.3 mi ESE 9.2 mph - N/A Rain , Snow Light Rain
5:30 AM 33.8 °F 26.4 °F 32.0 °F 93% 29.21 in 4.3 mi ESE 9.2 mph - N/A Rain , Snow Light Rain
6:00 AM 33.8 °F 25.8 °F 32.0 °F 93% 29.18 in 3.1 mi ESE 10.4 mph - N/A Rain , Snow Light Rain
6:30 AM 33.8 °F 25.8 °F 32.0 °F 93% 29.18 in 3.1 mi ESE 10.4 mph - N/A Rain , Snow Light Rain
7:00 AM 33.8 °F 26.4 °F 32.0 °F 93% 29.18 in 2.5 mi ESE 9.2 mph - N/A Rain , Snow Light Rain
7:30 AM 33.8 °F 27.0 °F 32.0 °F 93% 29.18 in 2.5 mi ESE 8.1 mph - N/A Rain , Snow Light Rain
8:00 AM 32.0 °F 26.4 °F 32.0 °F 100% 29.18 in 1.6 mi ESE 5.8 mph - N/A Snow Light Snow
8:30 AM 33.8 °F 28.6 °F 32.0 °F 93% 29.18 in 1.9 mi ESE 5.8 mph - N/A Snow Light Snow
9:00 AM 33.8 °F 28.6 °F 32.0 °F 93% 29.18 in 1.5 mi ESE 5.8 mph - N/A Rain Rain
9:30 AM 33.8 °F 29.6 °F 32.0 °F 93% 29.15 in 1.2 mi ESE 4.6 mph - N/A Rain Rain
10:00 AM 33.8 °F 30.8 °F 33.8 °F 100% 29.18 in 1.3 mi SE 3.5 mph - N/A Rain Light Rain
10:30 AM 35.6 °F 32.8 °F 33.8 °F 93% 29.18 in 1.4 mi SE 3.5 mph - N/A Rain Light Rain
11:00 AM 35.6 °F 32.8 °F 35.6 °F 100% 29.18 in 1.9 mi SSW 3.5 mph - N/A Rain Light Rain
11:30 AM 37.4 °F 32.8 °F 35.6 °F 93% 29.18 in 3.1 mi WSW 5.8 mph - N/A Rain Light Rain
12:00 PM 37.4 °F 32.1 °F 37.4 °F 100% 29.18 in 4.3 mi West 6.9 mph - N/A Rain Light Rain
12:30 PM 39.2 °F 33.6 °F 37.4 °F 93% 29.18 in 5.0 mi West 8.1 mph - N/A   Mostly Cloudy
1:00 PM 37.4 °F 30.3 °F 35.6 °F 93% 29.18 in 6.2 mi West 10.4 mph - N/A   Mostly Cloudy
1:30 PM 39.2 °F 33.6 °F 35.6 °F 87% 29.21 in 6.2 mi West 8.1 mph - N/A   Mostly Cloudy
2:00 PM 37.4 °F 29.8 °F 35.6 °F 93% 29.21 in 6.2 mi West 11.5 mph - N/A Rain Light Rain
2:30 PM 37.4 °F 32.8 °F 35.6 °F 93% 29.21 in 5.6 mi West 5.8 mph - N/A Rain Light Rain
3:00 PM 37.4 °F 32.8 °F 37.4 °F 100% 29.24 in 4.3 mi West 5.8 mph - N/A   Mostly Cloudy
3:30 PM 37.4 °F 30.3 °F 37.4 °F 100% 29.24 in 3.7 mi West 10.4 mph - N/A Rain Light Rain
4:00 PM 37.4 °F 29.8 °F 35.6 °F 93% 29.24 in 4.3 mi West 11.5 mph - N/A Rain Light Rain
4:30 PM 37.4 °F 29.8 °F 35.6 °F 93% 29.27 in 5.0 mi West 11.5 mph - N/A Rain Light Rain
5:00 PM 37.4 °F 30.8 °F 35.6 °F 93% 29.27 in 5.6 mi WNW 9.2 mph - N/A Rain Light Rain
5:30 PM 35.6 °F 27.5 °F 33.8 °F 93% 29.30 in 4.3 mi WNW 11.5 mph - N/A Rain Light Rain
6:00 PM 33.8 °F 27.0 °F 33.8 °F 100% 29.33 in 5.0 mi WNW 8.1 mph - N/A   Mostly Cloudy
6:30 PM 33.8 °F 26.4 °F 32.0 °F 93% 29.33 in 5.0 mi WNW 9.2 mph - N/A Rain Light Rain
7:00 PM 33.8 °F 24.8 °F 32.0 °F 93% 29.36 in 6.2 mi WNW 12.7 mph - N/A   Mostly Cloudy
7:30 PM 33.8 °F 25.8 °F 32.0 °F 93% 29.39 in 6.2 mi NW 10.4 mph - N/A   Mostly Cloudy
8:00 PM 33.8 °F 25.3 °F 32.0 °F 93% 29.42 in 5.0 mi NW 11.5 mph - N/A   Mostly Cloudy
8:30 PM 33.8 °F 27.0 °F 32.0 °F 93% 29.44 in 5.0 mi NW 8.1 mph - N/A   Overcast
9:00 PM 33.8 °F 25.3 °F 32.0 °F 93% 29.44 in 4.3 mi NW 11.5 mph - N/A   Overcast
9:30 PM 33.8 °F 25.3 °F 32.0 °F 93% 29.47 in 3.7 mi NW 11.5 mph - N/A   Overcast
10:00 PM 33.8 °F 26.4 °F 32.0 °F 93% 29.47 in 3.7 mi WNW 9.2 mph - N/A   Overcast
10:30 PM 33.8 °F 26.4 °F 32.0 °F 93% 29.47 in 4.3 mi NW 9.2 mph - N/A   Overcast
11:00 PM 33.8 °F 25.3 °F 32.0 °F 93% 29.50 in 4.3 mi NW 11.5 mph - N/A   Overcast
11:30 PM 33.8 °F 26.4 °F 32.0 °F 93% 29.53 in 3.1 mi NW 9.2 mph - N/A   Overcast